Hourly Data Report for October 02, 2015

All times are specified in Local Standard Time (LST). Add 1 hour to adjust for Daylight Saving Time where and when it is observed.

BAKER LAKE A
NUNAVUT

64°17'56.000" N
96°04'40.000" W
18.60 m
2300503
71926
YBK

Download Data

Hourly Data (October 2015)
Hourly Data Report for October 2, 2015
Temp Definition
°C
Dew Point Temp Definition
°C
Rel Hum Definition
%
Wind Dir Definition
10's deg

Wind Spd Definition
km/h
Visibility Definition
km
Stn Press Definition
kPa
Hmdx Definition


Wind Chill Definition


Weather Definition


TIME
00:00 Legend Double Dagger 2.8 -0.7 78 35 20 24.1 102.72     Mostly Cloudy
01:00 Legend Double Dagger 2.8 -1.6 73 1 16 24.1 102.74     LegendNANA
02:00 Legend Double Dagger 2.4 -1.6 75 2 16 24.1 102.74     LegendNANA
03:00 Legend Double Dagger 2.6 -1.6 74 5 19 24.1 102.75     Cloudy
04:00 Legend Double Dagger 2.4 -2.0 73 5 16 24.1 102.80     LegendNANA
05:00 Legend Double Dagger 2.2 -2.1 73 6 18 24.1 102.80     LegendNANA
06:00 Legend Double Dagger 2.1 -1.9 75 5 21 32.2 102.78     Cloudy
07:00 Legend Double Dagger 2.1 -2.1 74 6 22 32.2 102.78     LegendNANA
08:00 Legend Double Dagger 1.9 -1.7 77 5 19 24.1 102.76     LegendNANA
09:00 Legend Double Dagger 1.8 -1.6 78 6 24 16.1 102.67     Snow
10:00 Legend Double Dagger 1.4 -0.8 85 6 31 24.1 102.57     Rain
11:00 Legend Double Dagger 1.3 -0.8 86 4 27 32.2 102.51     Rain
12:00 Legend Double Dagger 1.4 -1.0 84 5 29 24.1 102.41     Rain
13:00 Legend Double Dagger 1.5 -1.6 80 6 39 16.1 102.34     Rain
14:00 Legend Double Dagger 0.9 -0.6 90 5 36 8.1 102.29     Rain
15:00 Legend Double Dagger 0.9 -0.4 91 5 33 9.7 102.23     Rain
16:00 Legend Double Dagger 0.8 -0.5 91 5 33 9.7 102.13     Snow
17:00 Legend Double Dagger 0.8 -0.4 92 5 36 8.1 102.09     Snow
18:00 Legend Double Dagger 1.0 -0.2 92 6 32 16.1 102.03     Snow
19:00 Legend Double Dagger 0.9 0.0 94 6 33 8.1 102.01     Snow
20:00 Legend Double Dagger 0.9 -0.1 93 5 36 16.1 101.93     Rain,Snow
21:00 Legend Double Dagger 0.7 -0.2 94 4 34 9.7 101.90     Drizzle,Snow
22:00 Legend Double Dagger 0.7 -0.3 93 4 28 9.7 101.83     Drizzle,Snow
23:00 Legend Double Dagger 0.8 -0.1 94 4 28 9.7 101.78     Drizzle,Snow

Notes on Data Quality.

Legend

  • E = Estimated
  • M = Missing
  • NA = Not Available
  • ‡ = Partner data that is not subject to review by the National Climate Archives
Date modified: